GW2967 Weather Reports


time (UTC)temp
F
wind
direction
speed
knots
gust
knots
rain 1hr
in
rain 24hr
in
rain mn
in
humidity
%
barometer
mb
20260510030036 46 0 0.0 0.0 0.00 0.33 0.33 69 1010.5
20260510024530 47 0 0.0 0.0 0.00 0.33 0.33 69 1010.6
20260510023028 47 0 0.0 0.0 0.00 0.33 0.33 69 1010.4
20260510021532 47 0 0.0 0.0 0.00 0.33 0.33 69 1010.2
20260510020028 47 0 0.0 0.0 0.00 0.33 0.33 68 1010.4
20260510014528 48 0 0.0 0.0 0.00 0.33 0.33 68 1010.2
20260510013030 48 0 0.0 0.0 0.00 0.33 0.33 68 1010.3
20260510011530 48 0 0.0 0.0 0.00 0.33 0.33 67 1010.1
20260510010030 49 0 0.0 0.0 0.00 0.33 0.33 66 1010.0
20260510004528 50 0 0.0 0.0 0.00 0.33 0.33 66 1009.7
20260510003031 50 0 0.0 0.0 0.00 0.33 0.33 67 1009.6
20260510001530 51 0 0.0 0.0 0.00 0.33 0.33 68 1009.7
20260510000030 52 0 0.0 0.0 0.00 0.33 0.33 68 1009.4
20260509234533 53 0 0.0 0.0 0.00 0.33 0.33 68 1009.2
20260509233030 53 0 0.0 0.0 0.00 0.33 0.33 68 1009.2
20260509231528 54 0 0.0 0.0 0.00 0.33 0.33 68 1009.0
20260509230033 55 0 0.0 0.0 0.00 0.33 0.33 67 1009.1
20260509224529 56 0 0.0 0.9 0.00 0.33 0.33 66 1009.2
20260509223028 56 0 0.0 0.9 0.00 0.33 0.33 66 1009.1
20260509221533 56 0 0.0 0.9 0.00 0.33 0.33 67 1009.1
20260509220032 56 0 0.0 0.9 0.00 0.33 0.33 66 1009.2
20260509214532 56 124 0.0 0.9 0.00 0.33 0.33 67 1009.3
20260509213029 57 0 0.0 0.0 0.00 0.33 0.33 66 1009.4
20260509211530 57 0 0.0 0.9 0.00 0.33 0.33 66 1009.3
20260509210046 57 0 0.0 0.9 0.00 0.33 0.33 65 1009.4
20260509204530 56 0 0.0 0.9 0.00 0.33 0.33 65 1009.5
20260509203034 56 0 0.0 0.9 0.00 0.33 0.33 65 1009.6
20260509201532 55 0 0.0 0.9 0.01 0.33 0.33 64 1009.7
20260509200031 55 0 0.0 0.9 0.03 0.33 0.33 64 1009.9
20260509194530 54 0 0.0 0.0 0.05 0.34 0.33 65 1010.1
20260509193028 54 200 0.0 0.9 0.08 0.34 0.33 65 1010.1
20260509191528 53 0 0.0 0.0 0.08 0.33 0.32 66 1010.2
20260509190035 53 0 0.0 0.0 0.08 0.31 0.30 67 1010.6
20260509184535 53 0 0.0 0.0 0.06 0.28 0.27 67 1010.9
20260509183028 53 0 0.0 0.0 0.07 0.26 0.25 67 1010.9
20260509181528 53 0 0.0 0.0 0.09 0.25 0.24 67 1010.8
20260509180027 53 0 0.0 0.0 0.09 0.23 0.22 67 1011.0
20260509174527 53 0 0.0 0.0 0.11 0.22 0.21 67 1011.0
20260509173054 53 0 0.0 0.0 0.09 0.18 0.17 68 1011.1
20260509171535 52 0 0.0 0.9 0.08 0.16 0.15 68 1011.1
20260509170028 52 216 0.0 1.7 0.08 0.14 0.13 69 1011.4
20260509164530 53 0 0.0 0.9 0.06 0.11 0.10 68 1011.2
20260509163029 54 231 0.0 2.6 0.04 0.09 0.08 67 1011.4
20260509161531 55 0 0.0 1.7 0.04 0.08 0.07 67 1011.3
20260509160030 55 0 0.0 0.9 0.02 0.06 0.05 67 1011.5
20260509154528 55 103 0.0 0.9 0.01 0.05 0.04 66 1011.6
20260509153033 54 169 0.0 0.9 0.01 0.05 0.04 66 1011.7
20260509151530 53 0 0.0 0.0 0.00 0.04 0.03 69 1011.9
20260509150032 52 0 0.0 0.9 0.00 0.04 0.03 68 1011.6
20260509144530 53 0 0.0 0.0 0.01 0.04 0.03 68 1011.1
20260509143030 53 0 0.0 0.9 0.02 0.04 0.03 69 1011.1
20260509141532 52 0 0.0 0.9 0.02 0.04 0.03 69 1011.3
20260509140030 51 0 0.0 0.9 0.02 0.04 0.03 68 1011.6
20260509134530 51 210 0.0 0.9 0.02 0.03 0.02 69 1011.6
20260509133031 52 0 0.0 0.9 0.01 0.02 0.01 67 1011.1
20260509131537 52 0 0.0 0.9 0.01 0.02 0.01 66 1011.0
20260509130053 52 0 0.0 0.9 0.01 0.02 0.01 66 1010.9
20260509124534 51 0 0.0 0.9 0.00 0.01 0.00 65 1011.0
20260509123046 51 227 0.0 0.9 0.00 0.01 0.00 65 1011.3
20260509121540 50 103 0.0 0.9 0.00 0.01 0.00 65 1011.3
20260509120037 49 0 0.0 0.0 0.00 0.01 0.00 65 1011.5
20260509114530 48 0 0.0 0.9 0.00 0.01 0.00 66 1011.3
20260509113045 48 0 0.0 0.0 0.00 0.01 0.00 67 1011.1
20260509111555 48 0 0.0 0.0 0.00 0.01 0.00 67 1011.2
20260509110031 47 0 0.0 0.9 0.00 0.01 0.00 67 1011.4
20260509104531 47 128 0.0 0.9 0.00 0.01 0.00 67 1011.0
20260509103142 46 0 0.0 0.9 0.00 0.01 0.00 67 1010.7
20260509101545 46 0 0.0 0.0 0.00 0.01 0.00 67 1010.6
20260509100028 46 0 0.0 0.0 0.00 0.01 0.00 67 1010.9
20260509094533 46 0 0.0 0.0 0.00 0.01 0.00 67 1011.0
20260509093034 46 0 0.0 0.0 0.00 0.01 0.00 67 1011.0
20260509091531 46 0 0.0 0.0 0.00 0.01 0.00 67 1011.0
20260509090032 46 0 0.0 0.0 0.00 0.01 0.00 67 1011.2
20260509084531 46 0 0.0 0.0 0.00 0.01 0.00 66 1011.2
20260509083030 46 0 0.0 0.0 0.00 0.01 0.00 66 1011.5
20260509081528 46 0 0.0 0.0 0.00 0.01 0.00 67 1011.5
20260509080030 46 0 0.0 0.0 0.00 0.01 0.00 68 1011.7
20260509074530 46 0 0.0 0.0 0.00 0.01 0.00 68 1011.6
20260509073031 47 0 0.0 0.0 0.00 0.01 0.00 68 1011.7
20260509071530 47 0 0.0 0.0 0.00 0.01 0.00 68 1011.6
20260509070028 47 0 0.0 0.9 0.00 0.01 0.00 68 1011.9
20260509064528 47 0 0.0 0.0 0.00 0.01 0.00 70 1012.0
20260509063034 48 0 0.0 0.0 0.00 0.01 0.00 70 1012.0
20260509061531 48 0 0.0 0.9 0.00 0.01 0.00 70 1011.9
20260509060031 48 0 0.0 0.0 0.00 0.01 0.00 70 1011.7
20260509054537 48 0 0.0 0.0 0.00 0.04 0.00 71 1011.7
20260509053032 48 0 0.0 0.0 0.00 0.04 0.00 71 1012.1
20260509051531 48 0 0.0 0.0 0.00 0.04 0.00 71 1012.7
20260509050031 48 0 0.0 0.0 0.00 0.04 0.00 70 1012.9
20260509044529 48 0 0.0 0.0 0.00 0.04 0.00 70 1012.9
20260509043028 48 0 0.0 0.9 0.00 0.04 0.00 70 1012.6
20260509041530 48 0 0.0 0.0 0.00 0.04 0.00 70 1012.3
20260509040044 48 0 0.0 0.0 0.00 0.04 0.00 70 1012.0
20260509034530 48 0 0.0 0.0 0.00 0.04 0.04 70 1012.2
20260509033030 48 0 0.0 0.0 0.00 0.04 0.04 69 1012.2
20260509031532 47 0 0.0 0.0 0.00 0.04 0.04 69 1012.6